When you browse on this site, cookies collect data to enhance your experience and personalize the content and advertising you see.
Visit our Privacy Policy to learn more. By continuing to use the site, you agree to this use of cookies and data.
  • In Sweden
  • List of Countries
  • For 7 days
  • Water Temperature
  • Satellite Maps
  • Weather Map
  • Weather Widgets
  • user-avatar
    Login

    Hourly Weather Bandipur

    Today, 18 July, Thursday

    Time Temperature Precipitation Wind Pressure Humidity
    00:00 +28°C° 0 mm 1 mps 736 mmHg 82%
    01:00 +28°C° 0.2 mm 1 mps 736 mmHg 83%
    02:00 +28°C° 0.2 mm 1 mps 736 mmHg 85%
    03:00 +27°C° 0.2 mm 1 mps 735 mmHg 86%
    04:00 +27°C° 0.2 mm 1 mps 735 mmHg 87%
    05:00 +27°C° 0.2 mm 1 mps 735 mmHg 88%
    06:00 +27°C° 0 mm 1 mps 736 mmHg 90%
    07:00 +29°C° 0 mm 1 mps 736 mmHg 83%
    08:00 +31°C° 0 mm 1 mps 736 mmHg 76%
    09:00 +31°C° 0 mm 0 mps 736 mmHg 68%
    10:00 +35°C° 0 mm 1 mps 736 mmHg 63%
    11:00 +36°C° 0 mm 1 mps 735 mmHg 57%
    12:00 +37°C° 0 mm 1 mps 736 mmHg 52%
    13:00 +37°C° 0.4 mm 1 mps 735 mmHg 53%
    14:00 +38°C° 0.4 mm 2 mps 735 mmHg 54%
    15:00 +37°C° 0.4 mm 2 mps 734 mmHg 55%
    16:00 +36°C° 0.1 mm 1 mps 734 mmHg 58%
    17:00 +36°C° 0.1 mm 1 mps 734 mmHg 61%
    18:00 +35°C° 0.1 mm 1 mps 734 mmHg 64%
    19:00 +34°C° 0 mm 1 mps 735 mmHg 67%
    20:00 +33°C° 0 mm 1 mps 735 mmHg 69%
    21:00 +31°C° 0 mm 1 mps 735 mmHg 72%
    22:00 +31°C° 0 mm 1 mps 735 mmHg 74%
    23:00 +30°C° 0 mm 1 mps 736 mmHg 75%

    Tomorrow, 19 July, Friday

    Time Temperature Precipitation Wind Pressure Humidity
    00:00 +30°C° 0 mm 1 mps 736 mmHg 77%
    01:00 +30°C° 0.1 mm 1 mps 736 mmHg 78%
    02:00 +29°C° 0.1 mm 1 mps 735 mmHg 80%
    03:00 +29°C° 0.1 mm 1 mps 735 mmHg 81%
    04:00 +29°C° 0.2 mm 1 mps 735 mmHg 82%
    05:00 +28°C° 0.2 mm 1 mps 736 mmHg 84%
    06:00 +28°C° 0.2 mm 1 mps 736 mmHg 85%
    07:00 +30°C° 0.4 mm 1 mps 737 mmHg 80%
    08:00 +32°C° 0.4 mm 1 mps 737 mmHg 74%
    09:00 +32°C° 0.4 mm 0 mps 737 mmHg 68%
    10:00 +35°C° 0.9 mm 1 mps 737 mmHg 63%
    11:00 +37°C° 0.9 mm 1 mps 737 mmHg 57%
    12:00 +39°C° 0.9 mm 1 mps 737 mmHg 51%
    13:00 +39°C° 0.1 mm 1 mps 736 mmHg 51%
    14:00 +39°C° 0.1 mm 1 mps 736 mmHg 51%
    15:00 +39°C° 0.1 mm 1 mps 735 mmHg 51%
    16:00 +39°C° 0 mm 1 mps 735 mmHg 55%
    17:00 +37°C° 0 mm 1 mps 735 mmHg 59%
    18:00 +36°C° 0 mm 1 mps 735 mmHg 62%
    19:00 +35°C° 0.1 mm 1 mps 735 mmHg 65%
    20:00 +33°C° 0.1 mm 1 mps 735 mmHg 67%
    21:00 +32°C° 0.1 mm 1 mps 736 mmHg 70%
    22:00 +32°C° 0.2 mm 1 mps 736 mmHg 72%
    23:00 +31°C° 0.2 mm 1 mps 736 mmHg 74%

    Day after tomorrow, 20 July, Saturday

    Time Temperature Precipitation Wind Pressure Humidity
    00:00 +31°C° 0.2 mm 1 mps 736 mmHg 77%
    01:00 +30°C° 0.5 mm 1 mps 736 mmHg 78%
    02:00 +30°C° 0.5 mm 1 mps 736 mmHg 79%
    03:00 +30°C° 0.5 mm 1 mps 736 mmHg 80%
    04:00 +29°C° 1 mm 1 mps 736 mmHg 82%
    05:00 +29°C° 1 mm 1 mps 737 mmHg 84%
    06:00 +28°C° 1 mm 2 mps 737 mmHg 86%
    07:00 +30°C° 0.7 mm 1 mps 737 mmHg 82%
    08:00 +32°C° 0.7 mm 1 mps 737 mmHg 77%
    09:00 +33°C° 0.7 mm 1 mps 738 mmHg 73%
    10:00 +35°C° 1.7 mm 1 mps 738 mmHg 69%
    11:00 +36°C° 1.7 mm 1 mps 737 mmHg 65%
    12:00 +37°C° 1.7 mm 1 mps 737 mmHg 60%
    13:00 +37°C° 0.5 mm 1 mps 737 mmHg 58%
    14:00 +39°C° 0.5 mm 1 mps 736 mmHg 55%
    15:00 +39°C° 0.5 mm 1 mps 736 mmHg 52%
    16:00 +39°C° 0.4 mm 1 mps 735 mmHg 57%
    17:00 +35°C° 0.4 mm 0 mps 735 mmHg 61%
    18:00 +34°C° 0.4 mm 0 mps 735 mmHg 66%
    19:00 +33°C° 0.5 mm 0 mps 735 mmHg 70%
    20:00 +33°C° 0.5 mm 1 mps 735 mmHg 73%
    21:00 +31°C° 0.5 mm 1 mps 735 mmHg 77%
    22:00 +31°C° 1.3 mm 1 mps 735 mmHg 81%
    23:00 +30°C° 1.3 mm 1 mps 735 mmHg 85%

    21 July, Sunday

    Time Temperature Precipitation Wind Pressure Humidity
    00:00 +29°C° 1.3 mm 1 mps 735 mmHg 88%
    01:00 +29°C° 0.6 mm 1 mps 735 mmHg 89%
    02:00 +29°C° 0.6 mm 1 mps 735 mmHg 89%
    03:00 +29°C° 0.6 mm 1 mps 734 mmHg 89%
    04:00 +28°C° 0.8 mm 1 mps 735 mmHg 90%
    05:00 +28°C° 0.8 mm 1 mps 735 mmHg 90%
    06:00 +28°C° 0.8 mm 1 mps 735 mmHg 90%
    07:00 +30°C° 0.5 mm 1 mps 735 mmHg 86%
    08:00 +31°C° 0.5 mm 1 mps 735 mmHg 81%
    09:00 +33°C° 0.5 mm 1 mps 736 mmHg 76%
    10:00 +34°C° 2 mm 1 mps 735 mmHg 73%
    11:00 +35°C° 2 mm 1 mps 735 mmHg 71%
    12:00 +35°C° 2 mm 1 mps 735 mmHg 69%
    13:00 +35°C° 2.3 mm 1 mps 735 mmHg 69%
    14:00 +35°C° 2.3 mm 1 mps 734 mmHg 70%
    15:00 +33°C° 2.3 mm 0 mps 733 mmHg 71%
    16:00 +35°C° 1.6 mm 1 mps 733 mmHg 74%
    17:00 +34°C° 1.6 mm 1 mps 733 mmHg 77%
    18:00 +34°C° 1.6 mm 1 mps 733 mmHg 80%
    19:00 +32°C° 1 mm 1 mps 734 mmHg 83%
    20:00 +31°C° 1 mm 1 mps 734 mmHg 85%
    21:00 +30°C° 1 mm 1 mps 734 mmHg 87%
    22:00 +30°C° 1.6 mm 1 mps 734 mmHg 88%
    23:00 +29°C° 1.6 mm 1 mps 734 mmHg 89%

    22 July, Monday

    Time Temperature Precipitation Wind Pressure Humidity
    00:00 +29°C° 1.6 mm 1 mps 734 mmHg 91%
    01:00 +29°C° 1.6 mm 1 mps 734 mmHg 91%
    02:00 +28°C° 1.6 mm 1 mps 734 mmHg 92%
    03:00 +28°C° 1.6 mm 1 mps 733 mmHg 93%
    04:00 +28°C° 1.9 mm 1 mps 734 mmHg 93%
    05:00 +28°C° 1.9 mm 1 mps 734 mmHg 93%
    06:00 +28°C° 1.9 mm 1 mps 734 mmHg 93%
    07:00 +29°C° 0.5 mm 1 mps 734 mmHg 91%
    08:00 +30°C° 0.5 mm 1 mps 734 mmHg 88%
    09:00 +31°C° 0.5 mm 1 mps 735 mmHg 85%
    10:00 +32°C° 3 mm 1 mps 734 mmHg 83%
    11:00 +34°C° 3 mm 2 mps 734 mmHg 82%
    12:00 +34°C° 3 mm 3 mps 734 mmHg 80%
    13:00 +34°C° 3 mm 3 mps 734 mmHg 80%
    14:00 +34°C° 3 mm 2 mps 733 mmHg 80%
    15:00 +34°C° 3 mm 2 mps 732 mmHg 80%
    16:00 +34°C° 1.6 mm 2 mps 732 mmHg 82%
    17:00 +33°C° 1.6 mm 1 mps 732 mmHg 84%
    18:00 +32°C° 1.6 mm 1 mps 732 mmHg 85%
    19:00 +31°C° 0.2 mm 1 mps 732 mmHg 87%
    20:00 +30°C° 0.2 mm 1 mps 733 mmHg 89%
    21:00 +29°C° 0.2 mm 1 mps 734 mmHg 91%
    22:00 +29°C° 1.7 mm 1 mps 734 mmHg 93%
    23:00 +28°C° 1.7 mm 1 mps 734 mmHg 95%

    23 July, Tuesday

    Time Temperature Precipitation Wind Pressure Humidity
    00:00 +28°C° 1.7 mm 2 mps 735 mmHg 96%
    01:00 +28°C° 1 mm 2 mps 734 mmHg 96%
    02:00 +28°C° 1 mm 1 mps 734 mmHg 96%
    03:00 +28°C° 1 mm 1 mps 734 mmHg 96%
    04:00 +28°C° 0.3 mm 1 mps 734 mmHg 96%
    05:00 +28°C° 0.3 mm 1 mps 734 mmHg 96%
    06:00 +28°C° 0.3 mm 1 mps 734 mmHg 95%
    07:00 +28°C° 0.4 mm 1 mps 734 mmHg 93%
    08:00 +29°C° 0.4 mm 1 mps 735 mmHg 92%
    09:00 +29°C° 0.4 mm 1 mps 735 mmHg 90%
    10:00 +30°C° 0.7 mm 1 mps 735 mmHg 88%
    11:00 +30°C° 0.7 mm 1 mps 734 mmHg 86%
    12:00 +31°C° 0.7 mm 1 mps 734 mmHg 84%
    13:00 +31°C° 1.7 mm 2 mps 734 mmHg 82%
    14:00 +32°C° 1.7 mm 2 mps 734 mmHg 80%
    15:00 +34°C° 1.7 mm 3 mps 733 mmHg 78%
    16:00 +32°C° 2.4 mm 2 mps 733 mmHg 81%
    17:00 +32°C° 2.4 mm 2 mps 733 mmHg 84%
    18:00 +31°C° 2.4 mm 2 mps 733 mmHg 87%
    19:00 +30°C° 0.8 mm 1 mps 734 mmHg 89%
    20:00 +29°C° 0.8 mm 1 mps 734 mmHg 90%
    21:00 +28°C° 0.8 mm 1 mps 735 mmHg 92%
    22:00 +28°C° 0.2 mm 1 mps 735 mmHg 92%
    23:00 +28°C° 0.2 mm 1 mps 735 mmHg 92%
    Show more